Pope AFB, NC

11:43 PM EST on February 22, 2017 (GMT -0500)
Pope Field Airport

Weather History for KPOB - December, 2012

Change the Weather History Date:

Sunday, December 23, 2012

  Actual Average Record
Temperature  
Mean Temperature 40 °F -  
Max Temperature 56 °F 55 °F 79 °F (1990)
Min Temperature 25 °F 37 °F 19 °F (1989)
Degree Days  
Heating Degree Days 24    
Moisture  
Dew Point 25 °F    
Average Humidity 58    
Maximum Humidity 89    
Minimum Humidity 24    
Precipitation  
Precipitation 0.00 in - - ()
Sea Level Pressure  
Sea Level Pressure 30.11 in    
Wind  
Wind Speed 3 mph (WSW)    
Max Wind Speed 10 mph    
Max Gust Speed -    
Visibility 10 miles    
Events      
Averages and records for this station are not official NWS values.
T = Trace of Precipitation, MM = Missing Value Source: NWS Daily Summary

Daily Weather History Graph

Daily Weather History Graph

Search for Another Location

Airport or City:

Trip Planner

Search our weather history database for the weather conditions in past years. The results will help you decide how hot, cold, wet, or windy it might be!

Date:

Astronomy

Dec. 23, 2012 Rise Set
Actual Time 7:21 AM EST 5:09 PM EST
Civil Twilight 6:53 AM EST 5:37 PM EST
Nautical Twilight 6:21 AM EST 6:09 PM EST
Astronomical Twilight 5:50 AM EST 6:40 PM EST
Moon 1:54 PM EST 3:07 AM EST
Length of Visible Light 10h 43m
Length of Day
9h 47m
Waxing Gibbous, 81% of the Moon is Illuminated
Dec 23
Waxing Gibbous
Dec 28
Full
Jan 4
Last Quarter
Jan 11
New
Jan 18
First Quarter

Hourly Weather History & Observations

Time (EST) Temp. Windchill Dew Point Humidity Pressure Visibility Wind Dir Wind Speed Gust Speed Precip Events Conditions
12:55 AM 30.4 °F 26.9 °F 22.8 °F 73% 30.12 in 10.0 mi WSW 3.5 mph - N/A   Clear
1:55 AM 27.9 °F - 24.3 °F 86% 30.14 in 10.0 mi Calm Calm - N/A   Clear
2:55 AM 27.3 °F - 23.5 °F 86% 30.15 in 10.0 mi Calm Calm - N/A   Clear
3:55 AM 28.2 °F - 23.7 °F 83% 30.14 in 10.0 mi Calm Calm - N/A   Clear
4:55 AM 27.0 °F 23.0 °F 22.6 °F 84% 30.14 in 10.0 mi West 3.5 mph - N/A   Clear
5:55 AM 25.9 °F - 22.6 °F 88% 30.13 in 10.0 mi Calm Calm - N/A   Clear
6:55 AM 25.2 °F - 22.3 °F 89% 30.16 in 10.0 mi Calm Calm - N/A   Clear
7:55 AM 26.2 °F 20.7 °F 22.8 °F 87% 30.17 in 10.0 mi WSW 4.6 mph - N/A   Clear
8:55 AM 32.2 °F - 24.8 °F 74% 30.18 in 10.0 mi Calm Calm - N/A   Clear
9:55 AM 41.5 °F - 26.1 °F 54% 30.18 in 10.0 mi Calm Calm - N/A   Clear
10:55 AM 48.4 °F - 21.2 °F 34% 30.16 in 10.0 mi SW 4.6 mph - N/A   Clear
11:55 AM 49.3 °F - 20.7 °F 32% 30.13 in 10.0 mi SW 9.2 mph - N/A   Partly Cloudy
12:55 PM 51.6 °F - 20.3 °F 29% 30.09 in 10.0 mi WSW 10.4 mph - N/A   Clear
1:55 PM 52.7 °F - 21.2 °F 29% 30.08 in 10.0 mi WSW 4.6 mph - N/A   Clear
2:55 PM 56.5 °F - 19.9 °F 24% 30.06 in 10.0 mi WSW 8.1 mph - N/A   Clear
3:55 PM 54.1 °F - 24.3 °F 31% 30.06 in 10.0 mi West 4.6 mph - N/A   Clear
4:55 PM 52.0 °F - 25.5 °F 36% 30.05 in 10.0 mi SSW 3.5 mph - N/A   Clear
5:55 PM 44.4 °F - 29.3 °F 55% 30.05 in 10.0 mi Calm Calm - N/A   Clear
7:55 PM 45.3 °F 43.0 °F 28.0 °F 51% 30.07 in 10.0 mi West 4.6 mph - N/A   Partly Cloudy
8:55 PM 41.2 °F 36.0 °F 31.1 °F 67% 30.07 in 10.0 mi SW 8.1 mph - N/A   Overcast
9:55 PM 45.3 °F 41.6 °F 28.8 °F 52% 30.07 in 10.0 mi SW 6.9 mph - N/A   Mostly Cloudy
10:55 PM 47.1 °F - 28.6 °F 49% 30.07 in 10.0 mi WSW 6.9 mph - N/A   Mostly Cloudy
11:55 PM 47.3 °F - 30.6 °F 52% 30.07 in 10.0 mi WSW 5.8 mph - N/A   Mostly Cloudy